Location: Roc des P�zouls
(43.9667°N, 3.5500°E)
Time: 07:39:21
(UTC+00:00)

Cosmos 1980 Rocket - Pass Details

Date: 14 November 2019
Orbit: 827 x 851 km, 71.0° (Epoch: 07 December)

Event Time Altitude Azimuth Distance (km) Brightness Sun altitude
Exits shadow 04:02:39 29° 356° (N) 1,509 3.4 -28.1°
Maximum altitude 04:05:22 54° 60° (ENE) 1,023 2.8 -27.6°
Drops below altitude 10° 04:10:55 10° 138° (SE) 2,467 5.1 -26.6°
Sets 04:13:24 0° 143° (SE) 3,395 5.9 -26.2°
